Location: Crescent
(42.8242°N, 73.7329°W)
Time: 18:34:04
(UTC+00:00)

Transit 2A - All Passes

Search period start: 18 February 2026 00:00
Search period end: 28 February 2026 00:00
Orbit: 589 x 955 km, 66.7° (Epoch: 18 February)

Date Brightness Start Highest point End Pass type
(mag) Time Alt. Az. Time Alt. Az. Time Alt. Az.
18 Feb - 00:10:09 10° N 00:13:19 14° NNE 00:16:23 10° ENE visible
18 Feb - 01:52:00 10° NNW 01:57:55 54° NE 02:03:16 10° SE visible
18 Feb - 03:35:54 10° NW 03:40:33 25° WSW 03:44:52 10° SSW visible
18 Feb - 16:30:11 10° S 16:35:45 39° ESE 16:41:32 10° NE daylight
18 Feb - 18:12:59 10° WSW 18:18:50 43° NW 18:24:51 10° NNE daylight
18 Feb - 20:01:00 10° NW 20:03:40 13° NNW 20:06:21 10° N daylight
18 Feb - 23:34:35 10° N 23:36:24 11° NNE 23:38:12 10° NE visible
19 Feb - 01:15:45 10° NNW 01:21:23 38° NE 01:26:32 10° ESE visible
19 Feb - 02:59:04 10° NW 03:04:26 37° WSW 03:09:20 10° S visible
19 Feb - 15:54:40 10° SSE 15:59:37 27° ESE 16:04:44 10° NE daylight
19 Feb - 17:36:14 10° SW 17:42:19 59° NW 17:48:36 10° NNE daylight
19 Feb - 19:23:02 10° WNW 19:26:48 16° NNW 19:30:33 10° N daylight
20 Feb - 00:39:35 10° NNW 00:44:46 28° NE 00:49:34 10° ESE visible
20 Feb - 02:22:27 10° NW 02:28:15 56° WSW 02:33:29 10° SSE visible
20 Feb - 15:19:38 10° SE 15:23:33 18° ESE 15:27:35 10° ENE daylight
20 Feb - 16:59:44 10° SSW 17:05:53 82° WNW 17:12:16 10° NNE daylight
20 Feb - 18:45:25 10° W 18:49:59 20° NW 18:54:36 10° N daylight
21 Feb - 00:03:29 10° N 00:08:03 22° NE 00:12:21 10° E visible
21 Feb - 01:45:58 10° NNW 01:51:58 83° WSW 01:57:20 10° SSE visible
21 Feb - 03:32:04 10° W 03:33:54 12° W 03:35:42 10° WSW visible
21 Feb - 14:45:43 10° ESE 14:47:34 11° E 14:49:26 10° E daylight
21 Feb - 16:23:27 10° SSW 16:29:32 72° ESE 16:35:52 10° NE daylight
21 Feb - 18:08:04 10° W 18:13:15 27° NW 18:18:31 10° NNE daylight
21 Feb - 23:27:29 10° N 23:31:16 17° NE 23:34:52 10° ENE visible
22 Feb - 01:09:36 10° NNW 01:15:35 69° ENE 01:20:58 10° SE visible
22 Feb - 02:54:06 10° WNW 02:57:55 18° WSW 03:01:32 10° SW visible
22 Feb - 15:47:24 10° S 15:53:16 50° ESE 15:59:22 10° NE daylight
22 Feb - 17:30:58 10° WSW 17:36:36 35° NW 17:42:22 10° NNE daylight
22 Feb - 19:20:09 10° NW 19:21:42 11° NNW 19:23:16 10° N daylight
22 Feb - 22:51:40 10° N 22:54:24 13° NNE 22:57:03 10° NE daylight
23 Feb - 00:33:19 10° NNW 00:39:07 48° NE 00:44:22 10° SE visible
23 Feb - 02:17:01 10° NW 02:21:52 28° WSW 02:26:20 10° SSW visible
23 Feb - 15:11:39 10° S 15:17:05 34° ESE 15:22:42 10° NE daylight
23 Feb - 16:54:05 10° SW 17:00:02 47° NW 17:06:09 10° NNE daylight
23 Feb - 18:41:43 10° WNW 18:44:46 14° NNW 18:47:49 10° N daylight
23 Feb - 22:16:30 10° NNE 22:17:27 10° NNE 22:18:24 10° NNE daylight
23 Feb - 23:57:06 10° NNW 00:02:33 35° NE 00:07:33 10° ESE visible
24 Feb - 01:40:16 10° NW 01:45:44 42° WSW 01:50:42 10° S visible
24 Feb - 14:36:14 10° SSE 14:40:58 24° ESE 14:45:49 10° NE daylight
24 Feb - 16:17:25 10° SW 16:23:33 66° WNW 16:29:53 10° NNE daylight
24 Feb - 18:03:52 10° WNW 18:07:54 17° NW 18:11:57 10° N daylight
24 Feb - 23:20:57 10° NNW 23:25:54 26° NE 23:30:30 10° E visible
25 Feb - 01:03:42 10° NW 01:09:31 63° WSW 01:14:45 10° SSE visible
25 Feb - 14:01:24 10° SE 14:04:55 16° ESE 14:08:29 10° ENE daylight
25 Feb - 15:40:57 10° SSW 15:47:09 90° E 15:53:32 10° NNE daylight
25 Feb - 17:26:19 10° W 17:31:07 22° NW 17:35:56 10° N daylight
25 Feb - 22:44:53 10° N 22:49:10 20° NE 22:53:12 10° E daylight
26 Feb - 00:27:15 10° NNW 00:33:13 88° ENE 00:38:32 10° SSE visible
26 Feb - 02:12:41 10° WNW 02:15:15 13° W 02:17:43 10° SW visible
26 Feb - 15:04:44 10° SSW 15:10:49 64° ESE 15:17:06 10° NE daylight
26 Feb - 16:49:03 10° WSW 16:54:25 29° NW 16:59:51 10° NNE daylight
26 Feb - 22:08:56 10° N 22:12:21 15° NNE 22:15:36 10° ENE daylight
26 Feb - 23:50:54 10° NNW 23:56:48 61° NE 00:02:05 10° SE visible
27 Feb - 01:35:06 10° WNW 01:39:14 21° WSW 01:43:07 10° SSW visible
27 Feb - 14:28:47 10° S 14:34:34 44° ESE 14:40:32 10° NE daylight
27 Feb - 16:12:01 10° WSW 16:17:47 38° NW 16:23:40 10° NNE daylight
27 Feb - 18:00:39 10° NW 18:02:46 12° NNW 18:04:51 10° N daylight
27 Feb - 21:33:15 10° N 21:35:27 12° NNE 21:37:37 10° NE daylight
27 Feb - 23:14:38 10° NNW 23:20:17 43° NE 23:25:25 10° ESE visible
